Tracking 20942 objects as of 11-Jul-2020
HD Live streaming from Space Station
objects crossing your sky now

BREEZE-M R/B

Track BREEZE-M R/B now!


NORAD ID: 26738
Int'l Code: 2001-014C
Perigee: 35,727.3 km
Apogee: 37,178.2 km
Inclination: 13.3 °
Period: 1,469.9 minutes
Semi major axis: 42823 km
RCS: 0.6845 m2 (medium)
Launch date: April 7, 2001
Source: Commonwealth of Independent States (former USSR) (CIS)
Launch site: TYURATAM MISSILE AND SPACE COMPLEX (TTMTR)

Note: This is a ROCKET BODY
aabbcc
Your satellite tracking list
Your tracking list is empty




NASA's NSSDC Master Catalog

Two Line Element Set (TLE):
1 26738U 01014C   20192.74259022 -.00000252 +00000-0 +00000-0 0  9997
2 26738 013.2701 030.6265 0169407 181.9171 351.3953 00.97966240068926
Source of the keplerian elements: AFSPC